Escanaba, MI

5:15 AM EDT on July 27, 2017 (GMT -0400)
Delta County

Weather History for KESC - November, 2012

Change the Weather History Date:

Friday, November 30, 2012

  Actual Average Record
Temperature  
Mean Temperature 27 °F -  
Max Temperature 33 °F 35 °F 55 °F (1998)
Min Temperature 21 °F 21 °F -3 °F (1976)
Degree Days  
Heating Degree Days 38    
Moisture  
Dew Point 21 °F    
Average Humidity 81    
Maximum Humidity 87    
Minimum Humidity 68    
Precipitation  
Precipitation 0.00 in - - ()
Sea Level Pressure  
Sea Level Pressure 30.29 in    
Wind  
Wind Speed 9 mph (NE)    
Max Wind Speed 13 mph    
Max Gust Speed 17 mph    
Visibility 8 miles    
Events      
Averages and records for this station are not official NWS values.
T = Trace of Precipitation, MM = Missing Value Source: NWS Daily Summary

Daily Weather History Graph

Daily Weather History Graph

Search for Another Location

Airport or City:

Trip Planner

Search our weather history database for the weather conditions in past years. The results will help you decide how hot, cold, wet, or windy it might be!

Date:

Astronomy

Nov. 30, 2012 Rise Set
Actual Time 8:08 AM EST 5:06 PM EST
Civil Twilight 7:34 AM EST 5:39 PM EST
Nautical Twilight 6:57 AM EST 6:16 PM EST
Astronomical Twilight 6:21 AM EST 6:52 PM EST
Moon 7:01 PM EST (11/30) 9:39 AM EST (11/30)
Length of Visible Light 10h 05m
Length of Day
8h 57m
Waning Gibbous, 96% of the Moon is Illuminated
Nov 30
Waning Gibbous
Dec 6
Last Quarter
Dec 13
New
Dec 20
First Quarter
Dec 28
Full

Hourly Weather History & Observations

Time (EST) Temp. Windchill Dew Point Humidity Pressure Visibility Wind Dir Wind Speed Gust Speed Precip Events Conditions
12:15 AM 23.0 °F 13.1 °F 15.8 °F 74% 30.32 in 10.0 mi NE 9.2 mph - N/A   Partly Cloudy
12:35 AM 23.0 °F 13.1 °F 15.8 °F 74% 30.32 in 10.0 mi ENE 9.2 mph 17.3 mph N/A   Clear
12:55 AM 23.0 °F 12.4 °F 15.8 °F 74% 30.32 in 10.0 mi NE 10.4 mph - N/A   Clear
1:15 AM 23.0 °F 12.4 °F 15.8 °F 74% 30.31 in 10.0 mi NE 10.4 mph - N/A   Clear
1:35 AM 23.0 °F 11.7 °F 15.8 °F 74% 30.31 in 10.0 mi NE 11.5 mph 17.3 mph N/A   Clear
1:55 AM 23.0 °F 13.1 °F 15.8 °F 74% 30.31 in 10.0 mi NE 9.2 mph - N/A   Clear
2:15 AM 23.0 °F 13.9 °F 15.8 °F 74% 30.31 in 10.0 mi NE 8.1 mph - N/A   Clear
2:35 AM 23.0 °F 12.4 °F 15.8 °F 74% 30.31 in 10.0 mi NNE 10.4 mph 16.1 mph N/A   Partly Cloudy
2:55 AM 23.0 °F 12.4 °F 15.8 °F 74% 30.31 in 10.0 mi NE 10.4 mph 17.3 mph N/A   Mostly Cloudy
3:15 AM 23.0 °F 12.4 °F 15.8 °F 74% 30.31 in 10.0 mi NE 10.4 mph - N/A   Overcast
3:35 AM 21.2 °F 10.9 °F 15.8 °F 80% 30.31 in 10.0 mi NE 9.2 mph 17.3 mph N/A   Overcast
3:55 AM 23.0 °F 13.9 °F 15.8 °F 74% 30.30 in 10.0 mi NE 8.1 mph - N/A   Overcast
4:15 AM 23.0 °F 13.1 °F 14.0 °F 68% 30.30 in 10.0 mi NE 9.2 mph - N/A   Overcast
4:35 AM 23.0 °F 13.1 °F 15.8 °F 74% 30.29 in 10.0 mi NE 9.2 mph - N/A   Overcast
4:55 AM 23.0 °F 11.7 °F 15.8 °F 74% 30.29 in 10.0 mi NE 11.5 mph - N/A   Overcast
5:15 AM 23.0 °F 13.1 °F 15.8 °F 74% 30.29 in 10.0 mi NNE 9.2 mph - N/A   Overcast
5:35 AM 23.0 °F 13.1 °F 15.8 °F 74% 30.28 in 6.0 mi NE 9.2 mph 16.1 mph N/A   Overcast
5:55 AM 23.0 °F 13.9 °F 17.6 °F 80% 30.29 in 3.0 mi NE 8.1 mph 17.3 mph N/A   Overcast
6:15 AM 21.2 °F 10.9 °F 17.6 °F 86% 30.29 in 2.5 mi NNE 9.2 mph - N/A   Overcast
6:35 AM 23.0 °F 12.4 °F 17.6 °F 80% 30.29 in 2.0 mi NE 10.4 mph - N/A   Overcast
6:55 AM 23.0 °F 12.4 °F 17.6 °F 80% 30.28 in 3.0 mi NE 10.4 mph 16.1 mph N/A   Overcast
7:15 AM 23.0 °F 13.1 °F 17.6 °F 80% 30.28 in 5.0 mi NNE 9.2 mph - N/A   Overcast
7:35 AM 23.0 °F 13.1 °F 17.6 °F 80% 30.29 in 4.0 mi NE 9.2 mph 16.1 mph N/A   Overcast
7:55 AM 23.0 °F 11.7 °F 17.6 °F 80% 30.29 in 5.0 mi NE 11.5 mph - N/A   Overcast
8:15 AM 23.0 °F 13.1 °F 17.6 °F 80% 30.30 in 5.0 mi NNE 9.2 mph - N/A   Overcast
8:35 AM 23.0 °F 11.7 °F 17.6 °F 80% 30.30 in 7.0 mi NNE 11.5 mph - N/A   Overcast
8:55 AM 23.0 °F 12.4 °F 19.4 °F 86% 30.31 in 8.0 mi NNE 10.4 mph - N/A   Overcast
9:15 AM 23.0 °F 12.4 °F 19.4 °F 86% 30.31 in 8.0 mi NE 10.4 mph - N/A   Overcast
9:35 AM 24.8 °F 13.4 °F 19.4 °F 80% 30.31 in 9.0 mi NE 12.7 mph 16.1 mph N/A   Overcast
9:55 AM 24.8 °F 14.6 °F 19.4 °F 80% 30.31 in 10.0 mi NE 10.4 mph - N/A   Overcast
10:15 AM 24.8 °F 14.6 °F 19.4 °F 80% 30.31 in 9.0 mi NE 10.4 mph 16.1 mph N/A   Overcast
10:35 AM 24.8 °F 14.6 °F 19.4 °F 80% 30.31 in 10.0 mi NE 10.4 mph - N/A   Overcast
10:55 AM 24.8 °F 15.3 °F 19.4 °F 80% 30.32 in 3.0 mi NE 9.2 mph 16.1 mph N/A   Overcast
11:15 AM 24.8 °F 15.3 °F 21.2 °F 86% 30.31 in 3.0 mi ENE 9.2 mph - N/A   Overcast
11:35 AM 26.6 °F 15.7 °F 21.2 °F 80% 30.31 in 3.0 mi NE 12.7 mph - N/A   Overcast
11:55 AM 26.6 °F 17.5 °F 21.2 °F 80% 30.30 in 5.0 mi NNE 9.2 mph - N/A   Overcast
12:15 PM 26.6 °F 16.2 °F 21.2 °F 80% 30.28 in 10.0 mi NE 11.5 mph 16.1 mph N/A   Overcast
12:35 PM 28.4 °F 19.7 °F 23.0 °F 80% 30.29 in 8.0 mi NE 9.2 mph - N/A   Overcast
12:55 PM 28.4 °F 19.1 °F 23.0 °F 80% 30.28 in 1.5 mi NE 10.4 mph 16.1 mph N/A   Overcast
1:15 PM 28.4 °F 20.4 °F 23.0 °F 80% 30.28 in 2.0 mi NE 8.1 mph - N/A   Overcast
1:35 PM 28.4 °F 22.2 °F 23.0 °F 80% 30.28 in 9.0 mi NE 5.8 mph - N/A   Overcast
1:55 PM 28.4 °F 21.2 °F 23.0 °F 80% 30.27 in 10.0 mi ENE 6.9 mph - N/A   Overcast
2:15 PM 28.4 °F 19.7 °F 24.8 °F 86% 30.27 in 10.0 mi NE 9.2 mph - N/A   Overcast
2:35 PM 28.4 °F 20.4 °F 24.8 °F 86% 30.27 in 10.0 mi NNE 8.1 mph - N/A   Overcast
2:55 PM 28.4 °F 21.2 °F 24.8 °F 86% 30.28 in 10.0 mi NNE 6.9 mph - N/A   Overcast
3:15 PM 28.4 °F 19.7 °F 24.8 °F 86% 30.26 in 10.0 mi NE 9.2 mph - N/A   Overcast
3:35 PM 28.4 °F 19.7 °F 24.8 °F 86% 30.26 in 10.0 mi NE 9.2 mph - N/A   Overcast
3:55 PM 28.4 °F 20.4 °F 24.8 °F 86% 30.27 in 10.0 mi NNE 8.1 mph - N/A   Overcast
4:15 PM 28.4 °F 19.7 °F 24.8 °F 86% 30.27 in 10.0 mi NE 9.2 mph - N/A   Overcast
4:35 PM 28.4 °F 20.4 °F 24.8 °F 86% 30.27 in 10.0 mi NE 8.1 mph - N/A   Overcast
4:55 PM 28.4 °F 21.2 °F 23.0 °F 80% 30.29 in 10.0 mi NE 6.9 mph - N/A   Overcast
5:15 PM 28.4 °F 20.4 °F 23.0 °F 80% 30.28 in 10.0 mi NNE 8.1 mph - N/A   Overcast
5:35 PM 28.4 °F 20.4 °F 23.0 °F 80% 30.28 in 10.0 mi NNE 8.1 mph - N/A   Overcast
5:55 PM 28.4 °F 22.2 °F 24.8 °F 86% 30.27 in 10.0 mi ENE 5.8 mph - N/A   Overcast
6:15 PM 28.4 °F 21.2 °F 24.8 °F 86% 30.29 in 10.0 mi NNE 6.9 mph - N/A   Overcast
6:35 PM 28.4 °F 20.4 °F 24.8 °F 86% 30.29 in 10.0 mi NNE 8.1 mph - N/A   Overcast
6:55 PM 28.4 °F 20.4 °F 24.8 °F 86% 30.30 in 10.0 mi NNE 8.1 mph - N/A   Overcast
7:15 PM 28.4 °F 19.7 °F 24.8 °F 86% 30.28 in 10.0 mi NE 9.2 mph - N/A   Overcast
7:35 PM 30.2 °F 23.4 °F 24.8 °F 80% 30.26 in 10.0 mi ENE 6.9 mph - N/A   Overcast
7:55 PM 30.2 °F 22.6 °F 24.8 °F 80% 30.26 in 10.0 mi NNE 8.1 mph - N/A   Overcast
8:15 PM 30.2 °F 25.4 °F 24.8 °F 80% 30.26 in 10.0 mi NE 4.6 mph - N/A   Overcast
8:35 PM 32.0 °F 27.5 °F 28.4 °F 87% 30.26 in 10.0 mi NE 4.6 mph - N/A   Overcast
8:55 PM 32.0 °F 27.5 °F 28.4 °F 87% 30.26 in 10.0 mi NE 4.6 mph - N/A   Overcast
9:15 PM 32.0 °F 26.4 °F 26.6 °F 80% 30.25 in 10.0 mi NE 5.8 mph - N/A   Overcast
9:35 PM 33.8 °F 27.0 °F 28.4 °F 81% 30.24 in 10.0 mi ENE 8.1 mph - N/A   Overcast
9:55 PM 33.8 °F 28.6 °F 28.4 °F 81% 30.23 in 10.0 mi NE 5.8 mph - N/A   Overcast
10:15 PM 33.8 °F 28.6 °F 28.4 °F 81% 30.24 in 10.0 mi NE 5.8 mph - N/A   Overcast
10:35 PM 32.0 °F 27.5 °F 28.4 °F 87% 30.25 in 10.0 mi NE 4.6 mph - N/A   Overcast
11:15 PM 32.0 °F 25.6 °F 28.4 °F 87% 30.24 in 10.0 mi NE 6.9 mph - N/A   Overcast
11:35 PM 32.0 °F 26.4 °F 28.4 °F 87% 30.25 in 10.0 mi NNE 5.8 mph - N/A   Overcast